Miscellaneous Local Product
Issued by NWS North Platte, NE

Home | Current Version | Previous Version | Text Only | Print | Product List | Glossary On
Versions: 1 2 3 4 5 6 7 8 9 10 11 12 13 14 15 16 17 18 19 20 21 22 23 24 25 26 27 28 29 30 31 32 33 34 35 36 37 38 39 40 41 42 43 44 45 46 47 48 49 50
588
AXUS43 KLBF 221510
MISLBF


WESTERN AND NORTH CENTRAL NEBRASKA HOURLY WEATHER ROUNDUP
NATIONAL WEATHER SERVICE NORTH PLATTE NE
900 AM CST WED FEB 22 2017

NOTE: "FAIR" INDICATES FEW OR NO CLOUDS BELOW 12,000 FEET WITH NO
SIGNIFICANT WEATHER AND/OR OBSTRUCTIONS TO VISIBILITY.

NOTE: STATIONS NOT REPORTING VARIABLES SUCH AS SKY/WEATHER OR
PRESSURE ARE PROVIDED BY RAWS AND APRS NETWORKS AND ARE NOT UNDER
NATIONAL WEATHER SERVICE QUALITY CONTROL.

...OBSERVATIONS IN AND NEAR THE EASTERN PANHANDLE OF NEBRASKA...

CITY           SKY/WX    TMP DP  RH WIND       PRES   REMARKS
PINE RIDGE     MOSUNNY   47  30  51 W14G21    29.79R
CHADRON        PTSUNNY   46  27  47 NW14      29.82R
ALLIANCE       SUNNY     43  27  53 W22G30    29.79S
SIDNEY         SUNNY     45  23  42 NW21G26   29.85R
CRESCENT LAKE    N/A     44  26  48 NW16G23     N/A
$$

...OBSERVATIONS IN NORTHERN NEBRASKA AND FAR SOUTHERN SOUTH DAKOTA...

CITY           SKY/WX    TMP DP  RH WIND       PRES   REMARKS
WINNER         FAIR      52  37  56 W17       29.68S
VALENTINE      SUNNY     47  36  65 W13       29.74R
THEDFORD       SUNNY     46  35  66 W13       29.78S
AINSWORTH      SUNNY     47  39  73 W14       29.74S
O`NEILL        SUNNY     51  39  63 W13       29.69R
ORD            SUNNY     48  34  58 VRB6      29.71R
BROKEN BOW     SUNNY     50  37  61 NW16G24   29.74R
VALENTINE NWR    N/A     44  37  75 W10         N/A
BUTTE            N/A     52  40  64 SW13G22     N/A
HALSEY           N/A     47  36  66 W8G15       N/A
CHAMBERS         N/A     52  39  61 N3          N/A
EWING            N/A     49  39  68 W3          N/A
$$

...OBSERVATIONS IN SOUTHWEST NEBRASKA AND FAR NORTHEAST COLORADO...

CITY           SKY/WX    TMP DP  RH WIND       PRES   REMARKS
HOLYOKE        FAIR      41  30  65 W9        29.87R
IMPERIAL       SUNNY     43  32  65 W6        29.86S
OGALLALA       SUNNY     42  34  72 SW3       29.83F
NORTH PLATTE   SUNNY     43  35  73 W9        29.81R
MCCOOK         SUNNY     47  34  60 NW21      29.81R
LEXINGTON      SUNNY     46  32  57 NW16G22   29.78R
STAPLETON        N/A     45  36  71 CALM        N/A
GOTHENBURG       N/A     45  32  61 W8          N/A
CALLAWAY         N/A     47  37  69 W12         N/A
$$

...OBSERVATIONS IN CENTRAL LINCOLN COUNTY AREA...

CITY           SKY/WX    TMP DP  RH WIND       PRES   REMARKS
N.P. AIRPORT   SUNNY     43  35  73 W9        29.81R
N.P. DOWNTOWN    N/A     44  35  72 W5          N/A
N.P. SOUTHEAST   N/A     44  34  67 MISG        N/A
N.P. HILLCREST   N/A     45  36  71 NW12        N/A
$$

...SOME OBSERVATIONS FROM AROUND THE REGION...

CITY           SKY/WX    TMP DP  RH WIND       PRES   REMARKS
LARAMIE        LGT SNOW  28  25  88 CALM      29.92S VSB 1
CHEYENNE       MOSUNNY   35  23  61 NW17G28   29.92R WCI  25
DENVER         MOSUNNY   39  24  55 E13       29.89R WCI  31
AKRON          SUNNY     41  26  55 W6        29.89R
SCOTTSBLUFF    PTSUNNY   46  25  43 W22G29    29.86S
RAPID CITY     MOSUNNY   47  28  47 W20       29.75R
BISMARCK       LGT SNOW  34  33  96 N6        29.74R FOG     WCI  29
PIERRE         MOSUNNY   45  35  68 NW20      29.67R
SIOUX FALLS    PTSUNNY   48  40  73 SE6       29.61F
OMAHA          MOSUNNY   52  37  56 SE8       29.64F
GRAND ISLAND   SUNNY     49  32  52 W12       29.72R
KANSAS CITY    PTSUNNY   60  41  49 S16G23    29.74F
WICHITA        MOSUNNY   51  41  68 S8        29.80F
OKLAHOMA CITY  MOSUNNY   54  43  66 S7        29.86S
DALLAS         MOSUNNY   58  46  64 SE5       29.89F
AMARILLO       SUNNY     64  29  26 W14       29.94R
DODGE CITY     CLOUDY    52  25  35 SW10      29.83R
HAYS           CLOUDY    46  30  53 CALM      29.79S
GOODLAND       SUNNY     48  31  51 NW15      29.86R
$$




USA.gov is the U.S. government's official web portal to all federal, state and local government web resources and services.